Regional Weather Roundup
Issued by NWS

Home | Current Version | Previous Version | Graphics & Text | Print | Product List | Glossary On
Versions: 1 2 3 4 5 6 7 8 9 10 11 12 13 14 15 16 17 18 19 20 21 22 23 24 25 26 27 28 29 30 31 32 33 34 35 36 37 38 39 40 41 42 43 44 45 46 47 48 49 50
100
ASUS43 KTOP 090459
RWRKS

WEATHER ROUNDUP FOR KANSAS
NATIONAL WEATHER SERVICE GOODLAND KS
1100 PM CST THU DEC 08 2016

NOTE:  "FAIR" INDICATES FEW OR NO CLOUDS BELOW 12,000 FEET WITH NO
SIGNIFICANT WEATHER AND/OR OBSTRUCTIONS TO VISIBILITY.

KSZ001>006-013>018-027>032-041>047-090600-
NORTHWEST KANSAS

CITY           SKY/WX    TMP DP  RH WIND       PRES   REMARKS
GOODLAND       CLOUDY     7   1  76 S8        30.42F
HAYS           CLOUDY     8   3  80 NW3       30.61S
HILL CITY      CLOUDY     1  -4  79 CALM      30.59S
RUSSELL        CLOUDY    10   4  76 CALM      30.61R
$$

KSZ061>065-074>080-084>089-090600-
SOUTHWEST KANSAS

CITY           SKY/WX    TMP DP  RH WIND       PRES   REMARKS
DODGE CITY     CLOUDY    17  11  77 CALM      30.55F
ELKHART          N/A     20  -1  40 S14         N/A  WCI   7
GARDEN CITY    CLOUDY    19   6  57 SE9       30.51F
GREAT BEND     CLOUDY     8   4  83 CALM      30.62S
LIBERAL        CLOUDY    23   3  42 SE7       30.52F
$$

KSZ066>073-081>083-090>101-090600-
SOUTHEAST KANSAS

CITY           SKY/WX    TMP DP  RH WIND       PRES   REMARKS
CHANUTE        CLEAR     16  10  77 NW5       30.67R
COFFEYVILLE    CLEAR     19  11  70 NW6       30.70R
HUTCHINSON     CLEAR     14   6  70 CALM      30.64S
NEWTON         CLEAR     15   9  76 NW3       30.64F
PARSONS        CLEAR     15  10  80 CALM      30.69R
WICHITA INTL   CLEAR     18   9  68 NE5       30.65F
WICHITA JABRA  CLEAR     17   9  70 NW5       30.65F
WINFIELD       CLEAR     18  10  71 NE6       30.67F
$$

KSZ007>012-019>026-033>040-048>060-102>105-090600-
NORTHEAST KANSAS

CITY           SKY/WX    TMP DP  RH WIND       PRES   REMARKS
CONCORDIA      CLEAR     13   7  77 W7        30.64R
EMPORIA        CLEAR     14   9  80 W3        30.65S
LAWRENCE       CLEAR     11   8  88 NW3       30.67S
MANHATTAN      CLEAR     14   7  73 CALM      30.67S
OLATHE IND     CLEAR     16  10  77 W3        30.65S
OLATHE EXE     CLEAR     17   9  70 NW5       30.64S
SALINA         CLEAR     15   7  70 CALM      30.67S
TOPEKA BILLARD CLEAR     17   9  70 NW3       30.67S
TOPEKA FORBES  CLEAR     16   9  74 NW5       30.65F
$$




USA.gov is the U.S. government's official web portal to all federal, state and local government web resources and services.